Hourly Data Report for October 23, 2013

All times are specified in Local Standard Time (LST). Add 1 hour to adjust for Daylight Saving Time where and when it is observed.

GRISE FIORD CLIMATE
NUNAVUT

76°25'22.040" N
82°54'08.020" W
44.50 m
2402351
71971
NGC

Download Data

Hourly Data (October 2013)
Hourly Data Report for October 23, 2013
Temp Definition
°C
Dew Point Temp Definition
°C
Rel Hum Definition
%
Wind Dir Definition
10's deg

Wind Spd Definition
km/h
Visibility Definition
km
Stn Press Definition
kPa
Hmdx Definition


Wind Chill Definition


Weather Definition


TIME
00:00 -7.8 -10.5 81 3 9   101.31   -12 LegendNANA
01:00 -8.1 -10.4 83 2 6   101.29   -11 LegendNANA
02:00 -8.3 -10.3 85 13 6   101.25   -12 LegendNANA
03:00 -7.0 -10.2 78 28 2   101.23   -8 LegendNANA
04:00 -8.0 -10.0 85 15 4   101.20   -10 LegendNANA
05:00 -8.4 -9.9 89 9 4   101.20   -11 LegendNANA
06:00 -8.3 -9.9 88 12 6   101.17   -12 LegendNANA
07:00 -8.6 -9.9 90 15 6   101.14   -12 LegendNANA
08:00 -10.4 -11.6 91 11 6   101.12   -14 LegendNANA
09:00 -9.6 -11.1 89 15 6   101.11   -13 LegendNANA
10:00
11:00
12:00
13:00 -8.5 -9.8 90 13 6   101.02   -12 LegendNANA
14:00 -8.2 -9.7 89 13 4   101.00   -10 LegendNANA
15:00 -8.2 -9.5 90 8 2   100.98   -9 LegendNANA
16:00 -8.1 -9.8 88 6 2   100.97   -9 LegendNANA
17:00 -8.1 -9.4 90 13 6   100.96   -11 LegendNANA
18:00 -8.3 -9.7 90 7 4   100.93   -10 LegendNANA
19:00 -7.9 -9.6 88 33 2   100.90   -9 LegendNANA
20:00 -8.0 -9.6 88 17 2   100.86   -9 LegendNANA
21:00 -8.2 -9.5 90 6 2   100.82   -9 LegendNANA
22:00 -7.7 -9.7 86 34 2   100.78   -9 LegendNANA
23:00 -7.7 -9.4 88 14 2   100.74   -9 LegendNANA

Notes on Data Quality.

Legend

  • E = Estimated
  • M = Missing
  • NA = Not Available
  • ‡ = Partner data that is not subject to review by the National Climate Archives
Date modified: